Location: Follega
(52.8850°N, 5.7362°E)
Time: 22:17:19
(UTC+00:00)

NOSS 2-2 (E) - Pass Details

Date: 01 June 2020
Orbit: 479 x 1728 km, 63.3° (Epoch: 01 July)

Event Time Altitude Azimuth Distance (km) Brightness Sun altitude
Rises 21:34:19 0° 224° (SW) 2,532 6.5 -10.5°
Reaches altitude 10° 21:36:18 10° 223° (SW) 1,683 5.6 -10.6°
Maximum altitude 21:39:57 85° 137° (SE) 546 3.2 -10.8°
Drops below altitude 10° 21:44:20 10° 48° (NE) 2,017 6.4 -11.1°
Sets 21:46:55 0° 48° (NE) 3,095 7.4 -11.3°
